When you browse on this site, cookies collect data to enhance your experience and personalize the content and advertising you see.
Visit our Privacy Policy to learn more. By continuing to use the site, you agree to this use of cookies and data.
  • In Austria
  • List of Countries
  • For 7 days
  • Water Temperature
  • Satellite Maps
  • Weather Map
  • News
  • Weather Widgets
  • user-avatar
    Login

    Hourly Weather Konstantyna

    Today, 20 November, Tuesday

    Time Temperature Precipitation Wind Pressure Humidity
    00:00 +12°C° 0 mm 4 mps 699 mmHg 67%
    01:00 +11°C° 0 mm 4 mps 699 mmHg 68%
    02:00 +11°C° 0 mm 4 mps 699 mmHg 69%
    03:00 +10°C° 0 mm 4 mps 699 mmHg 70%
    04:00 +10°C° 0 mm 4 mps 700 mmHg 72%
    05:00 +10°C° 0 mm 3 mps 700 mmHg 73%
    06:00 +9°C° 0 mm 3 mps 700 mmHg 75%
    07:00 +10°C° 0.2 mm 4 mps 701 mmHg 74%
    08:00 +11°C° 0.2 mm 4 mps 702 mmHg 73%
    09:00 +12°C° 0.2 mm 4 mps 703 mmHg 72%
    10:00 +12°C° 0 mm 4 mps 703 mmHg 68%
    11:00 +13°C° 0 mm 4 mps 704 mmHg 64%
    12:00 +14°C° 0 mm 3 mps 704 mmHg 60%
    13:00 +16°C° 0 mm 3 mps 704 mmHg 57%
    14:00 +16°C° 0 mm 3 mps 705 mmHg 54%
    15:00 +17°C° 0 mm 3 mps 705 mmHg 51%
    16:00 +14°C° 0 mm 3 mps 705 mmHg 55%
    17:00 +13°C° 0 mm 3 mps 705 mmHg 60%
    18:00 +12°C° 0 mm 3 mps 706 mmHg 65%
    19:00 +12°C° 0 mm 3 mps 706 mmHg 65%
    20:00 +11°C° 0 mm 3 mps 706 mmHg 64%
    21:00 +11°C° 0 mm 3 mps 707 mmHg 64%
    22:00 +11°C° 0 mm 3 mps 707 mmHg 63%
    23:00 +11°C° 0 mm 3 mps 707 mmHg 61%

    Tomorrow, 21 November, Wednesday

    Time Temperature Precipitation Wind Pressure Humidity
    00:00 +11°C° 0 mm 3 mps 707 mmHg 60%
    01:00 +11°C° 0 mm 3 mps 708 mmHg 60%
    02:00 +10°C° 0 mm 3 mps 708 mmHg 60%
    03:00 +10°C° 0 mm 3 mps 708 mmHg 60%
    04:00 +10°C° 0 mm 3 mps 708 mmHg 62%
    05:00 +10°C° 0 mm 3 mps 708 mmHg 63%
    06:00 +9°C° 0 mm 3 mps 709 mmHg 65%
    07:00 +11°C° 0 mm 3 mps 709 mmHg 60%
    08:00 +13°C° 0 mm 3 mps 710 mmHg 56%
    09:00 +16°C° 0 mm 3 mps 711 mmHg 51%
    10:00 +17°C° 0 mm 4 mps 711 mmHg 48%
    11:00 +18°C° 0 mm 4 mps 711 mmHg 44%
    12:00 +19°C° 0 mm 4 mps 711 mmHg 41%
    13:00 +19°C° 0 mm 3 mps 711 mmHg 41%
    14:00 +19°C° 0 mm 3 mps 711 mmHg 41%
    15:00 +19°C° 0 mm 3 mps 711 mmHg 41%
    16:00 +17°C° 0 mm 2 mps 711 mmHg 46%
    17:00 +16°C° 0 mm 2 mps 711 mmHg 50%
    18:00 +14°C° 0 mm 1 mps 712 mmHg 55%
    19:00 +14°C° 0 mm 2 mps 712 mmHg 55%
    20:00 +14°C° 0 mm 2 mps 712 mmHg 55%
    21:00 +13°C° 0 mm 2 mps 712 mmHg 55%
    22:00 +13°C° 0 mm 2 mps 712 mmHg 54%
    23:00 +13°C° 0 mm 2 mps 712 mmHg 54%

    Day after tomorrow, 22 November, Thursday

    Time Temperature Precipitation Wind Pressure Humidity
    00:00 +13°C° 0 mm 2 mps 712 mmHg 53%
    01:00 +13°C° 0 mm 2 mps 712 mmHg 53%
    02:00 +13°C° 0 mm 2 mps 712 mmHg 53%
    03:00 +13°C° 0 mm 2 mps 712 mmHg 53%
    04:00 +13°C° 0 mm 2 mps 712 mmHg 54%
    05:00 +13°C° 0 mm 2 mps 712 mmHg 54%
    06:00 +13°C° 0 mm 2 mps 712 mmHg 54%
    07:00 +14°C° 0 mm 2 mps 712 mmHg 51%
    08:00 +16°C° 0 mm 2 mps 713 mmHg 47%
    09:00 +17°C° 0 mm 3 mps 713 mmHg 44%
    10:00 +18°C° 0 mm 3 mps 713 mmHg 39%
    11:00 +20°C° 0 mm 3 mps 713 mmHg 34%
    12:00 +21°C° 0 mm 4 mps 713 mmHg 29%
    13:00 +21°C° 0 mm 3 mps 713 mmHg 30%
    14:00 +21°C° 0 mm 3 mps 712 mmHg 30%
    15:00 +21°C° 0 mm 3 mps 712 mmHg 30%
    16:00 +19°C° 0 mm 2 mps 712 mmHg 34%
    17:00 +17°C° 0 mm 2 mps 712 mmHg 37%
    18:00 +16°C° 0 mm 2 mps 712 mmHg 40%
    19:00 +15°C° 0 mm 2 mps 712 mmHg 41%
    20:00 +15°C° 0 mm 2 mps 712 mmHg 42%
    21:00 +14°C° 0 mm 2 mps 713 mmHg 43%
    22:00 +14°C° 0 mm 2 mps 713 mmHg 44%
    23:00 +13°C° 0 mm 2 mps 713 mmHg 46%

    23 November, Friday

    Time Temperature Precipitation Wind Pressure Humidity
    00:00 +13°C° 0 mm 2 mps 712 mmHg 47%
    01:00 +13°C° 0 mm 2 mps 712 mmHg 47%
    02:00 +12°C° 0 mm 2 mps 712 mmHg 47%
    03:00 +12°C° 0 mm 2 mps 712 mmHg 48%
    04:00 +12°C° 0 mm 2 mps 712 mmHg 47%
    05:00 +12°C° 0 mm 2 mps 712 mmHg 47%
    06:00 +10°C° 0 mm 2 mps 712 mmHg 47%
    07:00 +13°C° 0 mm 2 mps 712 mmHg 43%
    08:00 +15°C° 0 mm 2 mps 713 mmHg 40%
    09:00 +17°C° 0 mm 2 mps 713 mmHg 36%
    10:00 +18°C° 0 mm 3 mps 713 mmHg 33%
    11:00 +20°C° 0 mm 3 mps 713 mmHg 30%
    12:00 +21°C° 0 mm 3 mps 713 mmHg 27%
    13:00 +21°C° 0 mm 3 mps 713 mmHg 29%
    14:00 +21°C° 0 mm 3 mps 712 mmHg 31%
    15:00 +21°C° 0 mm 3 mps 712 mmHg 32%
    16:00 +19°C° 0 mm 3 mps 712 mmHg 36%
    17:00 +18°C° 0 mm 3 mps 712 mmHg 39%
    18:00 +16°C° 0 mm 2 mps 711 mmHg 42%
    19:00 +15°C° 0 mm 2 mps 711 mmHg 43%
    20:00 +14°C° 0 mm 3 mps 711 mmHg 45%
    21:00 +14°C° 0 mm 3 mps 711 mmHg 46%
    22:00 +13°C° 0 mm 3 mps 711 mmHg 47%
    23:00 +13°C° 0 mm 3 mps 711 mmHg 49%

    24 November, Saturday

    Time Temperature Precipitation Wind Pressure Humidity
    00:00 +13°C° 0 mm 3 mps 711 mmHg 50%
    01:00 +12°C° 0 mm 3 mps 711 mmHg 51%
    02:00 +12°C° 0 mm 3 mps 711 mmHg 52%
    03:00 +12°C° 0 mm 3 mps 711 mmHg 53%
    04:00 +12°C° 0 mm 3 mps 711 mmHg 53%
    05:00 +12°C° 0 mm 3 mps 711 mmHg 53%
    06:00 +12°C° 0 mm 3 mps 712 mmHg 54%
    07:00 +15°C° 0 mm 2 mps 712 mmHg 50%
    08:00 +16°C° 0 mm 2 mps 713 mmHg 47%
    09:00 +18°C° 0 mm 2 mps 713 mmHg 44%
    10:00 +19°C° 0 mm 2 mps 713 mmHg 42%
    11:00 +20°C° 0 mm 2 mps 713 mmHg 39%
    12:00 +21°C° 0 mm 2 mps 713 mmHg 36%
    13:00 +21°C° 0 mm 2 mps 713 mmHg 39%
    14:00 +21°C° 0 mm 2 mps 713 mmHg 41%
    15:00 +20°C° 0 mm 2 mps 713 mmHg 43%
    16:00 +19°C° 0 mm 2 mps 713 mmHg 51%
    17:00 +18°C° 0 mm 1 mps 712 mmHg 58%
    18:00 +16°C° 0 mm 1 mps 712 mmHg 65%
    19:00 +16°C° 0 mm 1 mps 712 mmHg 67%
    20:00 +15°C° 0 mm 1 mps 712 mmHg 68%
    21:00 +15°C° 0 mm 1 mps 712 mmHg 69%
    22:00 +15°C° 0 mm 1 mps 712 mmHg 68%
    23:00 +15°C° 0 mm 1 mps 712 mmHg 67%

    25 November, Sunday

    Time Temperature Precipitation Wind Pressure Humidity
    00:00 +15°C° 0 mm 1 mps 712 mmHg 65%
    01:00 +15°C° 0 mm 1 mps 711 mmHg 64%
    02:00 +15°C° 0 mm 1 mps 711 mmHg 63%
    03:00 +15°C° 0 mm 1 mps 711 mmHg 61%
    04:00 +14°C° 0 mm 1 mps 711 mmHg 61%
    05:00 +14°C° 0 mm 1 mps 711 mmHg 61%
    06:00 +14°C° 0 mm 1 mps 711 mmHg 61%
    07:00 +15°C° 0.1 mm 1 mps 711 mmHg 60%
    08:00 +16°C° 0.1 mm 1 mps 711 mmHg 58%
    09:00 +18°C° 0.1 mm 1 mps 711 mmHg 57%
    10:00 +18°C° 0.3 mm 1 mps 711 mmHg 58%
    11:00 +19°C° 0.3 mm 1 mps 711 mmHg 59%
    12:00 +19°C° 0.3 mm 1 mps 711 mmHg 60%
    13:00 +19°C° 0 mm 1 mps 711 mmHg 61%
    14:00 +19°C° 0 mm 1 mps 711 mmHg 61%
    15:00 +18°C° 0 mm 2 mps 710 mmHg 62%
    16:00 +17°C° 0.5 mm 2 mps 711 mmHg 69%
    17:00 +16°C° 0.5 mm 2 mps 711 mmHg 77%
    18:00 +15°C° 0.5 mm 2 mps 711 mmHg 84%
    19:00 +15°C° 1 mm 1 mps 711 mmHg 87%
    20:00 +15°C° 1 mm 1 mps 711 mmHg 89%
    21:00 +14°C° 1 mm 1 mps 711 mmHg 91%
    22:00 +14°C° 1.6 mm 1 mps 711 mmHg 92%
    23:00 +14°C° 1.6 mm 1 mps 711 mmHg 92%
    Show more